Regional Weather Roundup
Issued by NWS

Home | Current Version | Previous Version | Graphics & Text | Print | Product List | Glossary Off
Versions: 1 2 3 4 5 6 7 8 9 10 11 12 13 14 15 16 17 18 19 20 21 22 23 24 25 26 27 28 29 30 31 32 33 34 35 36 37 38 39 40 41 42 43 44 45 46 47 48 49 50

000
ASUS43 KDMX 250907
RWRIA

WEATHER ROUNDUP FOR IOWA
NATIONAL WEATHER SERVICE DES MOINES IA
400 AM CDT MON MAY 25 2015

NOTE: "FAIR" INDICATES FEW OR NO CLOUDS BELOW 12,000 FEET WITH NO
SIGNIFICANT WEATHER AND/OR OBSTRUCTIONS TO VISIBILITY.

* - THESE STATIONS ARE NOT NWS STATIONS...THUS NOT UNDER NWS
QUALITY CONTROL.  THEY ALSO DO NOT REPORT WEATHER SUCH
AS PRECIPITATION OR FOG.

IAZ001>003-012>014-020>022-031>034-043>046-251000-
   NORTHWEST IOWA

CITY           SKY/WX    TMP DP  RH WIND       PRES   REMARKS
CARROLL *      CLOUDY    63  63 100 SW13      29.74S
CHEROKEE *     CLOUDY    59  59 100 SW6       29.74R FOG
DENISON *      MOCLDY    63  63 100 SW7       29.74R
LE MARS *      CLOUDY    61  61 100 CALM      29.75S
ORANGE CITY *  CLOUDY    57  57 100 SW7       29.74S FOG
SHELDON *      FOG       59  57  94 W7        29.72S VSB 1/2
SIOUX CITY     CLOUDY    61  58  90 W6        29.74F
SPENCER        CLOUDY    61  60  97 SW12      29.72S FOG
STORM LAKE *   CLOUDY    59  59 100 W8        29.75R FOG
$$

IAZ055>058-069>071-079>083-090>094-251000-
   SOUTHWEST IOWA

CITY           SKY/WX    TMP DP  RH WIND       PRES   REMARKS
ATLANTIC *     CLOUDY    63  63 100 SW9       29.77S
AUDUBON *      DRIZZLE   63  59  88 SW7       29.77R
CLARINDA *     CLOUDY    63  63 100 S5        29.81R
COUNCIL BLFS * CLOUDY    63  63 100 SW8       29.77S
CRESTON *      LGT RAIN  63  63 100 SW13      29.79S
HARLAN  *      CLOUDY    63  63 100 SW9       29.79F
LAMONI         LGT RAIN  64  61  90 SW10      29.80S
RED OAK *      CLOUDY    63  63 100 S6        29.78S
SHENANDOAH *   CLOUDY    63  63 100 S7        29.79S
$$

IAZ047>049-059>061-072>074-084-251000-
   CENTRAL IOWA

CITY           SKY/WX    TMP DP  RH WIND       PRES   REMARKS
AMES           LGT RAIN  63  61  93 SW9       29.74S
ANKENY *       CLOUDY    63  63 100 SW7       29.75S
CHARITON *     CLOUDY    63  61  94 SW9       29.79R
DES MOINES     DRIZZLE   64  61  90 SW9       29.75F
GRINNELL*      CLOUDY    63  61  94 SW9       29.76S
KNOXVILLE *    CLOUDY    63  61  94 SW10      29.75F
MARSHALLTOWN   HVY RAIN  63  62  97 S8        29.74S FOG
PELLA *        CLOUDY    63  63 100 SW7       29.77F
PERRY *        DRIZZLE   63  61  94 SW7       29.74F
$$

IAZ004>006-015-016-023>025-035-036-251000-
   NORTH CENTRAL IOWA

CITY           SKY/WX    TMP DP  RH WIND       PRES   REMARKS
ALGONA *       CLOUDY    61 N/A N/A SW7       29.72F HAZE
CLARION *      CLOUDY    63  63 100 SW7       29.73S FOG
ESTHERVILLE    CLOUDY    60  59  96 SW12      29.70S
FORT DODGE *   CLOUDY    61  57  88 SW3       29.74S
MASON CITY     CLOUDY    62  61  96 SW8       29.72F FOG
FOREST CITY *  CLOUDY    61  61 100 SW7       29.72S FOG
IOWA FALLS *   LGT RAIN  63  63 100 SW6       29.74S
$$

IAZ007>011-017>019-026>030-037>042-050>054-066-251000-
   NORTHEAST IOWA

CITY           SKY/WX    TMP DP  RH WIND       PRES   REMARKS
CEDAR RAPIDS   CLOUDY    63  63 100 SW7       29.74F
CHARLES CITY * CLOUDY    63  63 100 S8        29.73S FOG
CLINTON *      CLOUDY    66  63  88 SE14      29.75F
DECORAH *      CLOUDY    64  64 100 VRB7      29.72F
DUBUQUE        RAIN      65  64  97 SW3       29.74F FOG
MONTICELLO *   LGT RAIN  64  64 100 W6        29.73F
OELWEIN *      DRIZZLE   63  63 100 S7        29.74F
WATERLOO       LGT RAIN  63  62  97 S5        29.73F
$$

IAZ064-065-067-068-078-251000-
   EAST CENTRAL IOWA

CITY           SKY/WX    TMP DP  RH WIND       PRES   REMARKS
DAVENPORT      LGT RAIN  67  64  90 S22       29.72F
IOWA CITY      CLOUDY    64  62  93 W6        29.76F
MT. PLEASANT * CLOUDY    63  63 100 W7        29.78R
MUSCATINE *    CLOUDY    66  64  94 W13       29.76R
QUAD CITIES    LGT RAIN  68  64  87 S18G24    29.72
$$

IAZ062-063-075>077-085>089-095>099-251000-
   SOUTHEAST IOWA

CITY           SKY/WX    TMP DP  RH WIND       PRES   REMARKS
BURLINGTON     CLOUDY    66  66 100 SW9       29.78R
FAIRFIELD *    CLOUDY    63  61  94 SW5       29.77S
FORT MADISON * CLOUDY    64  64 100 W6        29.80R
KEOKUK *       CLOUDY    66  66 100 W8        29.79R
OSKALOOSA *    CLOUDY    63  61  94 SW9       29.78R
CENTERVILLE *  CLOUDY    63  63 100 SW8       29.82R
OTTUMWA        CLOUDY    63  62  97 SW6       29.77S
WASHINGTON *   CLOUDY    63  61  94 SW8       29.78S
$$

ABBREVIATIONS USED IN REMARKS
   TC - TEMPERATURES IN CELSIUS
  WCI - WIND CHILL INDEX
   HX - HEAT INDEX
  VSB - VISIBILITY
$$




USA.gov is the U.S. government's official web portal to all federal, state and local government web resources and services.